| time (UTC) | temp F | wind direction | speed MPH | gust MPH | rain 1hr in | rain 24hr in | rain mn in | humidity % | barometer mb |
| 20260506014405 | 51 | 32 | 0.0 | 0.0 | 0.00 | 0.00 | 0.00 | 83 | 1008.0 |
| 20260506013905 | 51 | 36 | 0.0 | 0.0 | 0.00 | 0.00 | 0.00 | 83 | 1008.0 |
| 20260506013404 | 51 | 29 | 1.0 | 3.0 | 0.00 | 0.00 | 0.00 | 83 | 1007.9 |
| 20260506012905 | 51 | 15 | 0.0 | 3.0 | 0.00 | 0.00 | 0.00 | 83 | 1007.7 |
| 20260506012405 | 51 | 19 | 4.0 | 8.0 | 0.00 | 0.00 | 0.00 | 83 | 1006.8 |
| 20260506011904 | 51 | 34 | 3.0 | 7.0 | 0.00 | 0.00 | 0.00 | 83 | 1007.1 |
| 20260506010905 | 51 | 9 | 2.0 | 7.0 | 0.00 | 0.00 | 0.00 | 83 | 1008.0 |
| 20260506010406 | 51 | 20 | 1.0 | 9.0 | 0.00 | 0.00 | 0.00 | 83 | 1008.1 |
| 20260506005904 | 51 | 25 | 3.0 | 8.0 | 0.00 | 0.00 | 0.00 | 83 | 1008.1 |
| 20260506005404 | 51 | 19 | 3.0 | 7.0 | 0.00 | 0.00 | 0.00 | 83 | 1008.0 |
| 20260506004905 | 51 | 20 | 3.0 | 6.0 | 0.00 | 0.00 | 0.00 | 83 | 1008.1 |
| 20260506004405 | 51 | 351 | 0.0 | 6.0 | 0.00 | 0.00 | 0.00 | 83 | 1008.0 |
| 20260506003904 | 51 | 16 | 0.0 | 5.0 | 0.00 | 0.00 | 0.00 | 83 | 1007.8 |
| 20260506003404 | 51 | 13 | 3.0 | 6.0 | 0.00 | 0.00 | 0.00 | 83 | 1007.6 |
| 20260506002904 | 51 | 46 | 0.0 | 5.0 | 0.00 | 0.00 | 0.00 | 83 | 1007.7 |
| 20260506002405 | 51 | 83 | 2.0 | 7.0 | 0.00 | 0.00 | 0.00 | 83 | 1007.7 |
| 20260506001905 | 51 | 26 | 1.0 | 8.0 | 0.00 | 0.00 | 0.00 | 83 | 1007.8 |
| 20260506001405 | 52 | 18 | 2.0 | 7.0 | 0.00 | 0.00 | 0.00 | 83 | 1007.6 |
| 20260506000406 | 52 | 18 | 1.0 | 5.0 | 0.00 | 0.00 | 0.00 | 83 | 1007.6 |
| 20260505235905 | 52 | 7 | 0.0 | 0.0 | 0.00 | 0.00 | 0.00 | 83 | 1007.7 |
| 20260505235404 | 52 | 21 | 1.0 | 6.0 | 0.00 | 0.00 | 0.00 | 83 | 1007.7 |
| 20260505234404 | 52 | 0 | 2.0 | 7.0 | 0.00 | 0.00 | 0.00 | 83 | 1007.6 |
| 20260505233405 | 52 | 353 | 0.0 | 7.0 | 0.00 | 0.00 | 0.00 | 83 | 1008.4 |
| 20260505232904 | 52 | 14 | 0.0 | 1.0 | 0.00 | 0.00 | 0.00 | 83 | 1008.2 |
| 20260505232405 | 52 | 10 | 1.0 | 7.0 | 0.00 | 0.00 | 0.00 | 83 | 1008.1 |
| 20260505231905 | 52 | 17 | 3.0 | 6.0 | 0.00 | 0.00 | 0.00 | 83 | 1008.1 |
| 20260505231404 | 52 | 19 | 2.0 | 7.0 | 0.00 | 0.00 | 0.00 | 83 | 1008.1 |
| 20260505230905 | 53 | 7 | 2.0 | 9.0 | 0.00 | 0.00 | 0.00 | 83 | 1008.0 |
| 20260505230405 | 53 | 12 | 2.0 | 8.0 | 0.00 | 0.00 | 0.00 | 83 | 1007.9 |
| 20260505224904 | 53 | 12 | 1.0 | 9.0 | 0.00 | 0.00 | 0.00 | 83 | 1008.2 |
| 20260505224404 | 53 | 21 | 1.0 | 5.0 | 0.00 | 0.00 | 0.00 | 83 | 1008.2 |
| 20260505223905 | 54 | 13 | 1.0 | 6.0 | 0.00 | 0.00 | 0.00 | 83 | 1008.2 |
| 20260505223404 | 54 | 354 | 1.0 | 5.0 | 0.00 | 0.00 | 0.00 | 83 | 1008.1 |
| 20260505222404 | 55 | 33 | 0.0 | 2.0 | 0.00 | 0.00 | 0.00 | 83 | 1007.9 |
| 20260505221905 | 56 | 336 | 0.0 | 5.0 | 0.00 | 0.00 | 0.00 | 83 | 1007.9 |
| 20260505221404 | 56 | 347 | 0.0 | 0.0 | 0.00 | 0.00 | 0.00 | 83 | 1007.9 |
| 20260505220904 | 56 | 342 | 0.0 | 3.0 | 0.00 | 0.00 | 0.00 | 83 | 1007.8 |
| 20260505220405 | 56 | 345 | 2.0 | 7.0 | 0.00 | 0.00 | 0.00 | 83 | 1007.7 |
| 20260505215905 | 57 | 338 | 1.0 | 3.0 | 0.00 | 0.00 | 0.00 | 83 | 1007.6 |
| 20260505215405 | 57 | 349 | 1.0 | 7.0 | 0.00 | 0.00 | 0.00 | 83 | 1007.6 |
| 20260505214904 | 58 | 323 | 1.0 | 8.0 | 0.00 | 0.00 | 0.00 | 83 | 1007.5 |
| 20260505214405 | 60 | 321 | 2.0 | 12.0 | 0.00 | 0.00 | 0.00 | 83 | 1007.4 |
| 20260505213405 | 61 | 313 | 1.0 | 7.0 | 0.00 | 0.00 | 0.00 | 83 | 1007.2 |
| 20260505212404 | 61 | 255 | 0.0 | 0.0 | 0.00 | 0.00 | 0.00 | 83 | 1007.2 |
| 20260505211904 | 61 | 254 | 0.0 | 6.0 | 0.00 | 0.00 | 0.00 | 83 | 1007.1 |
| 20260505211404 | 61 | 180 | 0.0 | 6.0 | 0.00 | 0.00 | 0.00 | 83 | 1007.1 |
| 20260505210905 | 61 | 216 | 1.0 | 7.0 | 0.00 | 0.00 | 0.00 | 83 | 1007.0 |
| 20260505210404 | 61 | 246 | 1.0 | 6.0 | 0.00 | 0.00 | 0.00 | 83 | 1007.0 |
| 20260505205905 | 61 | 232 | 1.0 | 3.0 | 0.00 | 0.00 | 0.00 | 83 | 1007.0 |
| 20260505204904 | 61 | 192 | 1.0 | 6.0 | 0.00 | 0.00 | 0.00 | 83 | 1007.1 |
| 20260505204404 | 61 | 180 | 0.0 | 2.0 | 0.00 | 0.00 | 0.00 | 83 | 1007.2 |
| 20260505203904 | 61 | 250 | 1.0 | 5.0 | 0.00 | 0.00 | 0.00 | 83 | 1007.2 |
| 20260505203404 | 62 | 210 | 1.0 | 6.0 | 0.00 | 0.00 | 0.00 | 83 | 1007.3 |
| 20260505202905 | 62 | 210 | 2.0 | 7.0 | 0.00 | 0.00 | 0.00 | 83 | 1007.3 |
| 20260505201904 | 62 | 169 | 1.0 | 5.0 | 0.00 | 0.00 | 0.00 | 83 | 1007.5 |
| 20260505201404 | 62 | 171 | 0.0 | 0.0 | 0.00 | 0.00 | 0.00 | 83 | 1007.5 |
| 20260505200905 | 62 | 236 | 1.0 | 5.0 | 0.00 | 0.00 | 0.00 | 83 | 1007.3 |
| 20260505200404 | 62 | 179 | 0.0 | 6.0 | 0.00 | 0.00 | 0.00 | 83 | 1007.3 |
| 20260505195905 | 63 | 168 | 0.0 | 1.0 | 0.00 | 0.00 | 0.00 | 83 | 1007.3 |
| 20260505195405 | 62 | 178 | 0.0 | 0.0 | 0.00 | 0.00 | 0.00 | 83 | 1007.3 |
| 20260505194904 | 62 | 178 | 0.0 | 5.0 | 0.00 | 0.00 | 0.00 | 83 | 1007.3 |
| 20260505194404 | 62 | 176 | 0.0 | 3.0 | 0.00 | 0.00 | 0.00 | 83 | 1007.3 |
| 20260505193904 | 63 | 189 | 0.0 | 0.0 | 0.00 | 0.00 | 0.00 | 83 | 1007.5 |
| 20260505193404 | 63 | 144 | 1.0 | 6.0 | 0.00 | 0.00 | 0.00 | 83 | 1007.6 |
| 20260505192905 | 63 | 227 | 0.0 | 3.0 | 0.00 | 0.00 | 0.00 | 83 | 1007.7 |
| 20260505192404 | 63 | 160 | 1.0 | 3.0 | 0.00 | 0.00 | 0.00 | 83 | 1007.7 |
| 20260505191904 | 63 | 189 | 2.0 | 6.0 | 0.00 | 0.00 | 0.00 | 83 | 1007.7 |
| 20260505191405 | 63 | 162 | 2.0 | 8.0 | 0.00 | 0.00 | 0.00 | 83 | 1007.6 |
| 20260505190904 | 62 | 165 | 2.0 | 6.0 | 0.00 | 0.00 | 0.00 | 83 | 1007.7 |
| 20260505190405 | 62 | 155 | 2.0 | 7.0 | 0.00 | 0.00 | 0.00 | 83 | 1007.9 |
| 20260505184904 | 62 | 208 | 1.0 | 6.0 | 0.00 | 0.00 | 0.00 | 83 | 1008.3 |
| 20260505184404 | 62 | 186 | 1.0 | 6.0 | 0.00 | 0.00 | 0.00 | 83 | 1008.4 |
| 20260505183905 | 62 | 289 | 0.0 | 5.0 | 0.00 | 0.00 | 0.00 | 83 | 1008.3 |
| 20260505182905 | 62 | 206 | 1.0 | 5.0 | 0.00 | 0.00 | 0.00 | 83 | 1008.4 |
| 20260505182404 | 62 | 254 | 2.0 | 8.0 | 0.00 | 0.00 | 0.00 | 83 | 1008.4 |
| 20260505181904 | 62 | 152 | 1.0 | 8.0 | 0.00 | 0.00 | 0.00 | 83 | 1008.4 |
| 20260505181404 | 62 | 208 | 2.0 | 7.0 | 0.00 | 0.00 | 0.00 | 83 | 1008.3 |
| 20260505180904 | 62 | 140 | 1.0 | 8.0 | 0.00 | 0.00 | 0.00 | 83 | 1008.4 |
| 20260505180404 | 62 | 185 | 2.0 | 9.0 | 0.00 | 0.00 | 0.00 | 83 | 1008.4 |
| 20260505175904 | 62 | 198 | 2.0 | 9.0 | 0.00 | 0.00 | 0.00 | 83 | 1008.4 |
| 20260505175404 | 61 | 193 | 2.0 | 6.0 | 0.00 | 0.00 | 0.00 | 83 | 1008.5 |
| 20260505174905 | 61 | 220 | 2.0 | 7.0 | 0.00 | 0.00 | 0.00 | 83 | 1008.6 |
| 20260505174404 | 61 | 198 | 3.0 | 8.0 | 0.00 | 0.00 | 0.00 | 83 | 1008.6 |
| 20260505173904 | 61 | 149 | 1.0 | 6.0 | 0.00 | 0.00 | 0.00 | 83 | 1008.6 |
| 20260505173404 | 60 | 174 | 2.0 | 7.0 | 0.00 | 0.00 | 0.00 | 83 | 1008.8 |
| 20260505172905 | 60 | 148 | 1.0 | 7.0 | 0.00 | 0.00 | 0.00 | 83 | 1008.9 |
| 20260505172404 | 60 | 213 | 0.0 | 1.0 | 0.00 | 0.00 | 0.00 | 83 | 1008.9 |
| 20260505171904 | 60 | 155 | 2.0 | 7.0 | 0.00 | 0.00 | 0.00 | 83 | 1008.9 |
| 20260505171404 | 60 | 176 | 0.0 | 0.0 | 0.00 | 0.00 | 0.00 | 83 | 1008.9 |
| 20260505170904 | 60 | 185 | 0.0 | 0.0 | 0.00 | 0.00 | 0.00 | 83 | 1008.9 |
| 20260505170404 | 60 | 158 | 0.0 | 5.0 | 0.00 | 0.00 | 0.00 | 83 | 1008.8 |
| 20260505165904 | 60 | 166 | 0.0 | 5.0 | 0.00 | 0.00 | 0.00 | 83 | 1008.8 |
| 20260505164904 | 60 | 188 | 1.0 | 6.0 | 0.00 | 0.00 | 0.00 | 82 | 1008.9 |
| 20260505164405 | 60 | 175 | 1.0 | 7.0 | 0.00 | 0.00 | 0.00 | 82 | 1009.1 |
| 20260505163404 | 60 | 168 | 2.0 | 9.0 | 0.00 | 0.00 | 0.00 | 82 | 1009.1 |
| 20260505162904 | 60 | 183 | 0.0 | 7.0 | 0.00 | 0.00 | 0.00 | 82 | 1009.1 |
| 20260505162404 | 60 | 190 | 3.0 | 10.0 | 0.00 | 0.00 | 0.00 | 82 | 1009.1 |
| 20260505161904 | 60 | 152 | 5.0 | 12.0 | 0.00 | 0.00 | 0.00 | 82 | 1009.1 |
| 20260505161405 | 60 | 171 | 2.0 | 6.0 | 0.00 | 0.00 | 0.00 | 82 | 1009.1 |
| 20260505160904 | 60 | 148 | 1.0 | 7.0 | 0.00 | 0.00 | 0.00 | 82 | 1009.2 |
| 20260505160404 | 60 | 158 | 0.0 | 0.0 | 0.00 | 0.00 | 0.00 | 82 | 1009.1 |
| 20260505152904 | 60 | 187 | 0.0 | 0.0 | 0.00 | 0.00 | 0.00 | 81 | 1009.4 |
| 20260505151404 | 60 | 256 | 1.0 | 5.0 | 0.00 | 0.00 | 0.00 | 80 | 1009.7 |
| 20260505150904 | 60 | 234 | 2.0 | 9.0 | 0.00 | 0.00 | 0.00 | 79 | 1009.7 |
| 20260505150404 | 61 | 245 | 2.0 | 7.0 | 0.00 | 0.00 | 0.00 | 78 | 1009.7 |
| 20260505140404 | 65 | 140 | 0.0 | 0.0 | 0.00 | 0.00 | 0.00 | 64 | 1008.1 |
| 20260505124904 | 64 | 165 | 0.0 | 0.0 | 0.00 | 0.00 | 0.00 | 63 | 1008.0 |
| 20260505124404 | 64 | 165 | 0.0 | 0.0 | 0.00 | 0.00 | 0.00 | 64 | 1008.0 |
| 20260505123904 | 64 | 175 | 0.0 | 0.0 | 0.00 | 0.00 | 0.00 | 64 | 1007.9 |
| 20260505123403 | 64 | 149 | 0.0 | 0.0 | 0.00 | 0.00 | 0.00 | 64 | 1007.8 |
| 20260505122404 | 64 | 147 | 0.0 | 0.0 | 0.00 | 0.00 | 0.00 | 65 | 1007.9 |
| 20260505121903 | 64 | 144 | 0.0 | 0.0 | 0.00 | 0.00 | 0.00 | 65 | 1007.8 |
| 20260505121404 | 63 | 144 | 0.0 | 0.0 | 0.00 | 0.00 | 0.00 | 65 | 1007.9 |
| 20260505120904 | 63 | 144 | 0.0 | 0.0 | 0.00 | 0.00 | 0.00 | 65 | 1008.0 |
| 20260505120403 | 63 | 144 | 0.0 | 0.0 | 0.00 | 0.00 | 0.00 | 65 | 1008.0 |
| 20260505115904 | 63 | 144 | 0.0 | 0.0 | 0.00 | 0.00 | 0.00 | 65 | 1008.0 |
| 20260505115404 | 64 | 144 | 0.0 | 0.0 | 0.00 | 0.00 | 0.00 | 64 | 1008.0 |
| 20260505114904 | 64 | 144 | 0.0 | 0.0 | 0.00 | 0.00 | 0.00 | 64 | 1008.0 |
| 20260505114403 | 64 | 144 | 0.0 | 0.0 | 0.00 | 0.00 | 0.00 | 64 | 1007.9 |
| 20260505113904 | 64 | 144 | 0.0 | 0.0 | 0.00 | 0.00 | 0.00 | 63 | 1007.8 |
| 20260505113404 | 64 | 144 | 0.0 | 0.0 | 0.00 | 0.00 | 0.00 | 63 | 1007.9 |
| 20260505112904 | 64 | 144 | 0.0 | 0.0 | 0.00 | 0.00 | 0.00 | 63 | 1007.8 |
| 20260505112403 | 64 | 144 | 0.0 | 0.0 | 0.00 | 0.00 | 0.00 | 62 | 1007.7 |
| 20260505111904 | 64 | 143 | 0.0 | 0.0 | 0.00 | 0.00 | 0.00 | 62 | 1007.5 |
| 20260505110404 | 64 | 142 | 0.0 | 0.0 | 0.00 | 0.00 | 0.00 | 61 | 1007.4 |
| 20260505101404 | 65 | 221 | 0.0 | 0.0 | 0.00 | 0.00 | 0.00 | 60 | 1007.3 |
| 20260505100903 | 65 | 220 | 0.0 | 1.0 | 0.00 | 0.00 | 0.00 | 60 | 1007.2 |
| 20260505095903 | 65 | 190 | 2.0 | 8.0 | 0.00 | 0.00 | 0.00 | 60 | 1007.0 |
| 20260505095403 | 65 | 173 | 0.0 | 8.0 | 0.00 | 0.00 | 0.00 | 60 | 1007.0 |
| 20260505094904 | 65 | 198 | 0.0 | 0.0 | 0.00 | 0.00 | 0.00 | 60 | 1007.1 |
| 20260505094404 | 65 | 178 | 0.0 | 0.0 | 0.00 | 0.00 | 0.00 | 60 | 1007.1 |
| 20260505093903 | 65 | 171 | 0.0 | 0.0 | 0.00 | 0.00 | 0.00 | 60 | 1007.1 |
| 20260505092903 | 65 | 199 | 0.0 | 0.0 | 0.00 | 0.00 | 0.00 | 60 | 1007.3 |
| 20260505091903 | 65 | 171 | 0.0 | 0.0 | 0.00 | 0.00 | 0.00 | 60 | 1007.3 |
| 20260505090405 | 64 | 155 | 0.0 | 0.0 | 0.00 | 0.00 | 0.00 | 61 | 1007.4 |
| 20260505085905 | 64 | 201 | 0.0 | 0.0 | 0.00 | 0.00 | 0.00 | 61 | 1007.3 |
| 20260505085405 | 64 | 250 | 1.0 | 10.0 | 0.00 | 0.00 | 0.00 | 61 | 1007.3 |
| 20260505084905 | 64 | 164 | 0.0 | 0.0 | 0.00 | 0.00 | 0.00 | 61 | 1007.2 |
| 20260505084405 | 64 | 233 | 1.0 | 7.0 | 0.00 | 0.00 | 0.00 | 61 | 1007.2 |
| 20260505083905 | 65 | 188 | 0.0 | 2.0 | 0.00 | 0.00 | 0.00 | 60 | 1007.2 |
| 20260505083405 | 65 | 206 | 0.0 | 1.0 | 0.00 | 0.00 | 0.00 | 60 | 1007.2 |
| 20260505082905 | 65 | 243 | 0.0 | 0.0 | 0.00 | 0.00 | 0.00 | 60 | 1007.3 |
| 20260505081905 | 65 | 231 | 0.0 | 3.0 | 0.00 | 0.00 | 0.00 | 59 | 1007.2 |
| 20260505080405 | 65 | 179 | 0.0 | 1.0 | 0.00 | 0.00 | 0.00 | 58 | 1007.1 |
| 20260505075905 | 65 | 217 | 1.0 | 8.0 | 0.00 | 0.00 | 0.00 | 58 | 1007.1 |
| 20260505075405 | 65 | 229 | 2.0 | 10.0 | 0.00 | 0.00 | 0.00 | 58 | 1007.0 |
| 20260505074905 | 66 | 174 | 2.0 | 9.0 | 0.00 | 0.00 | 0.00 | 57 | 1007.1 |
| 20260505074405 | 66 | 176 | 3.0 | 8.0 | 0.00 | 0.00 | 0.00 | 57 | 1007.1 |
| 20260505073905 | 66 | 166 | 0.0 | 10.0 | 0.00 | 0.00 | 0.00 | 57 | 1007.2 |
| 20260505073405 | 66 | 168 | 1.0 | 10.0 | 0.00 | 0.00 | 0.00 | 57 | 1007.1 |
| 20260505072905 | 66 | 234 | 3.0 | 8.0 | 0.00 | 0.00 | 0.00 | 56 | 1007.1 |
| 20260505072405 | 66 | 187 | 2.0 | 8.0 | 0.00 | 0.00 | 0.00 | 56 | 1007.1 |
| 20260505071905 | 66 | 178 | 3.0 | 12.0 | 0.00 | 0.00 | 0.00 | 56 | 1007.2 |
| 20260505071405 | 66 | 239 | 1.0 | 10.0 | 0.00 | 0.00 | 0.00 | 55 | 1007.2 |
| 20260505070905 | 66 | 350 | 1.0 | 8.0 | 0.00 | 0.00 | 0.00 | 55 | 1007.2 |
| 20260505065905 | 66 | 256 | 4.0 | 8.0 | 0.00 | 0.00 | 0.00 | 56 | 1007.2 |
| 20260505065405 | 66 | 172 | 3.0 | 9.0 | 0.00 | 0.00 | 0.00 | 56 | 1007.2 |
| 20260505064905 | 66 | 239 | 4.0 | 9.0 | 0.00 | 0.00 | 0.00 | 55 | 1007.2 |
| 20260505064405 | 66 | 197 | 1.0 | 9.0 | 0.00 | 0.00 | 0.00 | 55 | 1007.2 |
| 20260505063405 | 67 | 222 | 4.0 | 12.0 | 0.00 | 0.00 | 0.00 | 55 | 1007.0 |
| 20260505062905 | 67 | 298 | 1.0 | 8.0 | 0.00 | 0.00 | 0.00 | 54 | 1007.0 |
| 20260505062405 | 67 | 207 | 2.0 | 15.0 | 0.00 | 0.00 | 0.00 | 53 | 1006.9 |
| 20260505061905 | 67 | 176 | 6.0 | 13.0 | 0.00 | 0.00 | 0.00 | 53 | 1006.9 |
| 20260505061405 | 67 | 159 | 7.0 | 14.0 | 0.00 | 0.00 | 0.00 | 53 | 1006.8 |
| 20260505060906 | 67 | 223 | 3.0 | 14.0 | 0.00 | 0.00 | 0.00 | 53 | 1006.8 |
| 20260505060406 | 67 | 239 | 6.0 | 14.0 | 0.00 | 0.00 | 0.00 | 53 | 1006.8 |
| 20260505055405 | 67 | 165 | 3.0 | 10.0 | 0.00 | 0.00 | 0.00 | 53 | 1006.7 |
| 20260505054905 | 67 | 205 | 4.0 | 10.0 | 0.00 | 0.00 | 0.00 | 53 | 1006.8 |
| 20260505054405 | 67 | 186 | 2.0 | 9.0 | 0.00 | 0.00 | 0.00 | 53 | 1006.7 |
| 20260505053905 | 67 | 254 | 5.0 | 10.0 | 0.00 | 0.00 | 0.00 | 52 | 1006.6 |
| 20260505052905 | 67 | 179 | 5.0 | 10.0 | 0.00 | 0.00 | 0.00 | 52 | 1006.6 |
| 20260505052405 | 67 | 161 | 3.0 | 9.0 | 0.00 | 0.00 | 0.00 | 52 | 1006.6 |
| 20260505051905 | 67 | 194 | 2.0 | 8.0 | 0.00 | 0.00 | 0.00 | 52 | 1006.6 |
| 20260505051405 | 67 | 160 | 5.0 | 9.0 | 0.00 | 0.00 | 0.00 | 52 | 1006.6 |
| 20260505050905 | 68 | 196 | 2.0 | 9.0 | 0.00 | 0.00 | 0.00 | 51 | 1006.6 |
| 20260505050405 | 68 | 245 | 1.0 | 8.0 | 0.00 | 0.00 | 0.00 | 51 | 1006.6 |
| 20260505041405 | 69 | 308 | 5.0 | 9.0 | 0.00 | 0.00 | 0.00 | 48 | 1006.5 |
| 20260505040905 | 69 | 186 | 5.0 | 9.0 | 0.00 | 0.00 | 0.00 | 48 | 1006.5 |
| 20260505040405 | 70 | 156 | 4.0 | 9.0 | 0.00 | 0.00 | 0.00 | 48 | 1006.5 |
| 20260505035905 | 70 | 218 | 3.0 | 10.0 | 0.00 | 0.00 | 0.00 | 48 | 1006.6 |
| 20260505034905 | 70 | 227 | 3.0 | 13.0 | 0.00 | 0.00 | 0.00 | 47 | 1006.4 |
| 20260505034405 | 69 | 153 | 5.0 | 12.0 | 0.00 | 0.00 | 0.00 | 48 | 1006.4 |
| 20260505033405 | 69 | 178 | 3.0 | 12.0 | 0.00 | 0.00 | 0.00 | 49 | 1006.6 |
| 20260505032905 | 69 | 295 | 0.0 | 6.0 | 0.00 | 0.00 | 0.00 | 49 | 1006.7 |
| 20260505032404 | 70 | 185 | 2.0 | 9.0 | 0.00 | 0.00 | 0.00 | 48 | 1006.9 |
| 20260505031906 | 70 | 235 | 1.0 | 8.0 | 0.00 | 0.00 | 0.00 | 48 | 1006.9 |
| 20260505031405 | 70 | 182 | 1.0 | 8.0 | 0.00 | 0.00 | 0.00 | 48 | 1006.9 |
| 20260505030905 | 70 | 178 | 0.0 | 7.0 | 0.00 | 0.00 | 0.00 | 48 | 1007.0 |
| 20260505030405 | 70 | 209 | 0.0 | 8.0 | 0.00 | 0.00 | 0.00 | 47 | 1006.9 |
| 20260505025406 | 71 | 160 | 0.0 | 8.0 | 0.00 | 0.00 | 0.00 | 47 | 1006.8 |
| 20260505024904 | 71 | 174 | 3.0 | 9.0 | 0.00 | 0.00 | 0.00 | 46 | 1006.8 |
| 20260505024405 | 71 | 274 | 5.0 | 9.0 | 0.00 | 0.00 | 0.00 | 46 | 1006.8 |
| 20260505022405 | 71 | 194 | 2.0 | 10.0 | 0.00 | 0.00 | 0.00 | 46 | 1006.6 |
| 20260505021905 | 71 | 203 | 3.0 | 9.0 | 0.00 | 0.00 | 0.00 | 45 | 1006.5 |
| 20260505020905 | 71 | 219 | 3.0 | 8.0 | 0.00 | 0.00 | 0.00 | 45 | 1006.4 |
| 20260505020404 | 72 | 169 | 3.0 | 9.0 | 0.00 | 0.00 | 0.00 | 45 | 1006.4 |
| 20260505015905 | 72 | 183 | 0.0 | 7.0 | 0.00 | 0.00 | 0.00 | 45 | 1006.3 |
| 20260505015405 | 72 | 192 | 2.0 | 9.0 | 0.00 | 0.00 | 0.00 | 44 | 1006.2 |